When you browse on this site, cookies collect data to enhance your experience and personalize the content and advertising you see.
Visit our Privacy Policy to learn more. By continuing to use the site, you agree to this use of cookies and data.
  • In Hungary
  • List of Countries
  • For 7 days
  • Water Temperature
  • Satellite Maps
  • Weather Map
  • News
  • Weather Widgets
  • user-avatar
    Login

    Hourly Weather Invercargill

    Today, 26 March, Tuesday

    Time Temperature Precipitation Wind Pressure Humidity
    00:00 +19°C° 0.5 mm 3 mps 753 mmHg 91%
    01:00 +18°C° 0.5 mm 3 mps 752 mmHg 93%
    02:00 +18°C° 0.5 mm 3 mps 752 mmHg 95%
    03:00 +18°C° 0.6 mm 3 mps 751 mmHg 96%
    04:00 +18°C° 0.6 mm 3 mps 750 mmHg 97%
    05:00 +18°C° 0 mm 3 mps 749 mmHg 98%
    06:00 +18°C° 1.3 mm 3 mps 749 mmHg 98%
    07:00 +18°C° 1.3 mm 2 mps 749 mmHg 98%
    08:00 +18°C° 1.3 mm 2 mps 749 mmHg 98%
    09:00 +19°C° 1.1 mm 2 mps 749 mmHg 98%
    10:00 +20°C° 1.1 mm 2 mps 749 mmHg 98%
    11:00 +18°C° 0 mm 4 mps 750 mmHg 95%
    12:00 +17°C° 0.2 mm 3 mps 750 mmHg 95%
    13:00 +17°C° 0.2 mm 2 mps 750 mmHg 95%
    14:00 +16°C° 0.2 mm 1 mps 750 mmHg 95%
    15:00 +16°C° 0 mm 1 mps 750 mmHg 95%
    16:00 +16°C° 0 mm 1 mps 750 mmHg 95%
    17:00 +16°C° 0 mm 1 mps 750 mmHg 95%
    18:00 +16°C° 0.1 mm 1 mps 751 mmHg 96%
    19:00 +15°C° 0.1 mm 1 mps 751 mmHg 96%
    20:00 +15°C° 0.1 mm 1 mps 751 mmHg 96%
    21:00 +15°C° 0 mm 2 mps 751 mmHg 93%
    22:00 +14°C° 0 mm 2 mps 751 mmHg 89%
    23:00 +14°C° 0 mm 2 mps 751 mmHg 85%

    Tomorrow, 27 March, Wednesday

    Time Temperature Precipitation Wind Pressure Humidity
    00:00 +13°C° 0 mm 3 mps 751 mmHg 84%
    01:00 +13°C° 0 mm 3 mps 750 mmHg 82%
    02:00 +13°C° 0 mm 3 mps 750 mmHg 80%
    03:00 +12°C° 0 mm 3 mps 750 mmHg 80%
    04:00 +12°C° 0 mm 3 mps 750 mmHg 80%
    05:00 +11°C° 0 mm 3 mps 750 mmHg 80%
    06:00 +11°C° 0.6 mm 4 mps 751 mmHg 85%
    07:00 +10°C° 0.6 mm 5 mps 751 mmHg 90%
    08:00 +10°C° 0.6 mm 6 mps 752 mmHg 95%
    09:00 +11°C° 0.2 mm 7 mps 753 mmHg 85%
    10:00 +12°C° 0.2 mm 7 mps 754 mmHg 75%
    11:00 +12°C° 0.2 mm 8 mps 755 mmHg 65%
    12:00 +12°C° 0.2 mm 7 mps 755 mmHg 64%
    13:00 +12°C° 0.2 mm 7 mps 756 mmHg 63%
    14:00 +12°C° 0.2 mm 7 mps 757 mmHg 62%
    15:00 +11°C° 0.1 mm 6 mps 758 mmHg 63%
    16:00 +11°C° 0.1 mm 6 mps 758 mmHg 65%
    17:00 +11°C° 0.1 mm 6 mps 759 mmHg 66%
    18:00 +11°C° 0.1 mm 6 mps 760 mmHg 69%
    19:00 +12°C° 0.1 mm 5 mps 761 mmHg 71%
    20:00 +10°C° 0.1 mm 5 mps 762 mmHg 73%
    21:00 +10°C° 0.1 mm 5 mps 763 mmHg 75%
    22:00 +11°C° 0.1 mm 4 mps 764 mmHg 77%
    23:00 +10°C° 0.1 mm 4 mps 765 mmHg 78%

    Day after tomorrow, 28 March, Thursday

    Time Temperature Precipitation Wind Pressure Humidity
    00:00 +10°C° 0 mm 3 mps 765 mmHg 79%
    01:00 +10°C° 0 mm 3 mps 765 mmHg 81%
    02:00 +9°C° 0 mm 3 mps 766 mmHg 82%
    03:00 +9°C° 0 mm 2 mps 766 mmHg 84%
    04:00 +8°C° 0 mm 2 mps 766 mmHg 86%
    05:00 +8°C° 0 mm 2 mps 767 mmHg 88%
    06:00 +8°C° 0 mm 2 mps 767 mmHg 82%
    07:00 +9°C° 0 mm 2 mps 767 mmHg 77%
    08:00 +10°C° 0 mm 2 mps 768 mmHg 71%
    09:00 +14°C° 0 mm 2 mps 768 mmHg 64%
    10:00 +16°C° 0 mm 1 mps 768 mmHg 56%
    11:00 +19°C° 0 mm 1 mps 768 mmHg 49%
    12:00 +20°C° 0 mm 1 mps 768 mmHg 48%
    13:00 +20°C° 0 mm 1 mps 767 mmHg 47%
    14:00 +21°C° 0 mm 1 mps 767 mmHg 46%
    15:00 +19°C° 0 mm 1 mps 767 mmHg 53%
    16:00 +18°C° 0 mm 1 mps 767 mmHg 61%
    17:00 +16°C° 0 mm 1 mps 768 mmHg 68%
    18:00 +14°C° 0 mm 1 mps 768 mmHg 76%
    19:00 +12°C° 0 mm 1 mps 768 mmHg 84%
    20:00 +10°C° 0 mm 0 mps 769 mmHg 92%
    21:00 +9°C° 0 mm 0 mps 769 mmHg 94%
    22:00 +9°C° 0 mm 0 mps 769 mmHg 95%
    23:00 +9°C° 0 mm 0 mps 769 mmHg 96%

    29 March, Friday

    Time Temperature Precipitation Wind Pressure Humidity
    00:00 +9°C° 0 mm 1 mps 769 mmHg 97%
    01:00 +9°C° 0 mm 1 mps 769 mmHg 98%
    02:00 +9°C° 0 mm 1 mps 769 mmHg 98%
    03:00 +9°C° 0 mm 1 mps 769 mmHg 98%
    04:00 +8°C° 0 mm 1 mps 769 mmHg 98%
    05:00 +8°C° 0 mm 1 mps 769 mmHg 99%
    06:00 +9°C° 0 mm 1 mps 769 mmHg 94%
    07:00 +10°C° 0 mm 1 mps 769 mmHg 89%
    08:00 +12°C° 0 mm 1 mps 769 mmHg 84%
    09:00 +14°C° 0 mm 1 mps 769 mmHg 73%
    10:00 +16°C° 0 mm 0 mps 769 mmHg 62%
    11:00 +19°C° 0 mm 0 mps 769 mmHg 51%
    12:00 +22°C° 0 mm 1 mps 768 mmHg 50%
    13:00 +22°C° 0 mm 1 mps 767 mmHg 50%
    14:00 +22°C° 0 mm 1 mps 767 mmHg 49%
    15:00 +21°C° 0 mm 1 mps 767 mmHg 57%
    16:00 +18°C° 0 mm 2 mps 767 mmHg 64%
    17:00 +17°C° 0 mm 2 mps 767 mmHg 72%
    18:00 +15°C° 0 mm 1 mps 767 mmHg 79%
    19:00 +13°C° 0 mm 1 mps 767 mmHg 87%
    20:00 +12°C° 0 mm 1 mps 768 mmHg 95%
    21:00 +11°C° 0 mm 1 mps 768 mmHg 96%
    22:00 +11°C° 0 mm 1 mps 768 mmHg 97%
    23:00 +11°C° 0 mm 1 mps 768 mmHg 98%

    30 March, Saturday

    Time Temperature Precipitation Wind Pressure Humidity
    00:00 +10°C° 0 mm 1 mps 767 mmHg 98%
    01:00 +10°C° 0 mm 1 mps 767 mmHg 98%
    02:00 +10°C° 0 mm 1 mps 767 mmHg 99%
    03:00 +10°C° 0 mm 1 mps 767 mmHg 99%
    04:00 +9°C° 0 mm 1 mps 767 mmHg 99%
    05:00 +8°C° 0 mm 2 mps 767 mmHg 99%
    06:00 +9°C° 0 mm 2 mps 767 mmHg 94%
    07:00 +10°C° 0 mm 2 mps 766 mmHg 90%
    08:00 +12°C° 0 mm 2 mps 766 mmHg 85%
    09:00 +15°C° 0 mm 2 mps 766 mmHg 73%
    10:00 +18°C° 0 mm 2 mps 765 mmHg 61%
    11:00 +22°C° 0 mm 1 mps 765 mmHg 49%
    12:00 +23°C° 0 mm 1 mps 764 mmHg 47%
    13:00 +24°C° 0 mm 1 mps 763 mmHg 44%
    14:00 +25°C° 0 mm 1 mps 763 mmHg 41%
    15:00 +24°C° 0 mm 1 mps 763 mmHg 50%
    16:00 +23°C° 0 mm 1 mps 762 mmHg 58%
    17:00 +21°C° 0 mm 1 mps 762 mmHg 67%
    18:00 +20°C° 0 mm 1 mps 762 mmHg 71%
    19:00 +18°C° 0 mm 1 mps 762 mmHg 75%
    20:00 +16°C° 0 mm 2 mps 762 mmHg 79%
    21:00 +15°C° 0 mm 2 mps 762 mmHg 81%
    22:00 +15°C° 0 mm 2 mps 762 mmHg 83%
    23:00 +14°C° 0 mm 2 mps 761 mmHg 85%

    31 March, Sunday

    Time Temperature Precipitation Wind Pressure Humidity
    00:00 +14°C° 0 mm 2 mps 761 mmHg 84%
    01:00 +14°C° 0 mm 2 mps 760 mmHg 84%
    02:00 +13°C° 0 mm 3 mps 760 mmHg 84%
    03:00 +13°C° 0 mm 3 mps 759 mmHg 83%
    04:00 +13°C° 0 mm 3 mps 758 mmHg 83%
    05:00 +13°C° 0 mm 3 mps 757 mmHg 83%
    06:00 +14°C° 0 mm 3 mps 757 mmHg 78%
    07:00 +16°C° 0 mm 3 mps 756 mmHg 74%
    08:00 +17°C° 0 mm 3 mps 755 mmHg 70%
    09:00 +19°C° 0 mm 3 mps 754 mmHg 63%
    10:00 +21°C° 0 mm 3 mps 753 mmHg 56%
    11:00 +25°C° 0 mm 3 mps 752 mmHg 50%
    12:00 +24°C° 0 mm 3 mps 751 mmHg 53%
    13:00 +24°C° 0 mm 3 mps 749 mmHg 56%
    14:00 +22°C° 0 mm 3 mps 747 mmHg 59%
    15:00 +21°C° 0.1 mm 3 mps 746 mmHg 61%
    16:00 +21°C° 0.1 mm 3 mps 744 mmHg 63%
    17:00 +20°C° 0.1 mm 4 mps 743 mmHg 65%
    18:00 +19°C° 0.5 mm 4 mps 742 mmHg 71%
    19:00 +19°C° 0.5 mm 4 mps 742 mmHg 76%
    20:00 +18°C° 0.5 mm 3 mps 742 mmHg 82%
    21:00 +17°C° 1.4 mm 4 mps 742 mmHg 87%
    22:00 +15°C° 1.4 mm 4 mps 743 mmHg 93%
    23:00 +14°C° 1.4 mm 4 mps 743 mmHg 98%
    Show more